Charlottetown, Prince Edward Island

9:13 AM ADT on August 19, 2017 (GMT -0300)
Charlottetown

Weather History for CYYG - September, 2012

Change the Weather History Date:

Sunday, September 16, 2012

  Actual Average Record
Temperature  
Mean Temperature 56 °F -  
Max Temperature 60 °F 59 °F 77 °F (2003)
Min Temperature 51 °F 43 °F 41 °F (2016)
Degree Days  
Heating Degree Days 10    
Growing Degree Days 6 (Base 50)    
Moisture  
Dew Point 48 °F    
Average Humidity 73    
Maximum Humidity 100    
Minimum Humidity 45    
Precipitation  
Precipitation 0.00 in 0.14 in - ()
Sea Level Pressure  
Sea Level Pressure 29.82 in    
Wind  
Wind Speed 9 mph ()    
Max Wind Speed 18 mph    
Max Gust Speed 28 mph    
Visibility 14.8 miles    
Events Rain    
Averages and records for this station are not official NWS values.
T = Trace of Precipitation, MM = Missing Value Source: Averaged Metar Reports

Daily Weather History Graph

Daily Weather History Graph

Search for Another Location

Airport or City:

Trip Planner

Search our weather history database for the weather conditions in past years. The results will help you decide how hot, cold, wet, or windy it might be!

Date:

Astronomy

Sep. 16, 2012 Rise Set
Actual Time 6:52 AM ADT 7:21 PM ADT
Civil Twilight 6:22 AM ADT 7:51 PM ADT
Nautical Twilight 5:46 AM ADT 8:26 PM ADT
Astronomical Twilight 5:09 AM ADT 9:03 PM ADT
Moon 7:32 AM ADT (9/16) 7:16 PM ADT (9/16)
Length of Visible Light 13h 29m
Length of Day
12h 28m
New Moon, 0% of the Moon is Illuminated
Sep 16
New Moon
Sep 22
First Quarter
Sep 30
Full
Oct 8
Last Quarter
Oct 15
New

Hourly Weather History & Observations

Time (ADT) Temp. Dew Point Humidity Pressure Visibility Wind Dir Wind Speed Gust Speed Precip Events Conditions
12:00 AM 59.0 °F 57.2 °F 94% 29.89 in 10.0 mi SW 8.1 mph - N/A Rain Light Rain Showers
2:00 AM 59.0 °F 59.0 °F 100% 29.86 in 15.0 mi South 13.8 mph - N/A   Overcast
3:00 AM 58 °F 57 °F 94% 29.83 in - South 9.2 mph - -   Partly Cloudy
3:00 AM 59.0 °F 57.2 °F 94% 29.83 in 15.0 mi South 10.4 mph - N/A   Mostly Cloudy
4:00 AM 59.0 °F 57.2 °F 94% 29.81 in 15.0 mi South 10.4 mph - N/A   Mostly Cloudy
5:00 AM 59.0 °F 57.2 °F 94% 29.80 in 15.0 mi West 9.2 mph - N/A   Overcast
6:00 AM 55.4 °F 51.8 °F 88% 29.80 in 15.0 mi West 10.4 mph - N/A   Mostly Cloudy
7:00 AM 53.6 °F 48.2 °F 82% 29.81 in 15.0 mi West 4.6 mph - N/A   Scattered Clouds
8:00 AM 53.6 °F 50.0 °F 88% 29.81 in 15.0 mi WSW 6.9 mph - N/A   Partly Cloudy
9:00 AM 54 °F 48 °F 72% 29.82 in - West 10.4 mph - -   Scattered Clouds
9:00 AM 53.6 °F 48.2 °F 82% 29.81 in 15.0 mi West 12.7 mph - N/A   Partly Cloudy
11:00 AM 57.2 °F 46.4 °F 67% 29.81 in 15.0 mi West 12.7 mph 19.6 mph N/A   Partly Cloudy
12:00 PM 57.2 °F 42.8 °F 59% 29.81 in 15.0 mi West 16.1 mph 27.6 mph N/A   Partly Cloudy
1:00 PM 57.2 °F 44.6 °F 63% 29.81 in 15.0 mi WSW 15.0 mph 24.2 mph N/A   Scattered Clouds
2:00 PM 59.0 °F 44.6 °F 59% 29.80 in 15.0 mi WSW 15.0 mph 21.9 mph N/A   Scattered Clouds
3:00 PM 59 °F 43 °F 45% 29.79 in - West 16.1 mph - -   Partly Cloudy
3:00 PM 59.0 °F 42.8 °F 55% 29.79 in 15.0 mi West 18.4 mph 25.3 mph N/A   Scattered Clouds
4:00 PM 59.0 °F 44.6 °F 59% 29.79 in 15.0 mi West 12.7 mph 20.7 mph N/A   Scattered Clouds
5:00 PM 59.0 °F 44.6 °F 59% 29.79 in 15.0 mi West 12.7 mph 25.3 mph N/A   Scattered Clouds
6:00 PM 57.2 °F 44.6 °F 63% 29.80 in 15.0 mi West 13.8 mph 20.7 mph N/A   Mostly Cloudy
7:00 PM 57.2 °F 44.6 °F 63% 29.81 in 15.0 mi West 8.1 mph - N/A   Mostly Cloudy
8:00 PM 55.4 °F 44.6 °F 67% 29.83 in 15.0 mi West 5.8 mph - N/A   Mostly Cloudy
9:00 PM 55 °F 45 °F 61% 29.84 in - West 4.6 mph - -   Mostly Cloudy
9:00 PM 55.4 °F 44.6 °F 67% 29.84 in 15.0 mi West 4.6 mph - N/A   Mostly Cloudy
10:00 PM 55.4 °F 44.6 °F 67% 29.84 in 15.0 mi WSW 5.8 mph - N/A   Mostly Cloudy
11:00 PM 55.4 °F 44.6 °F 67% 29.86 in 15.0 mi WNW 8.1 mph - N/A   Mostly Cloudy